Weather History for KBWP - December, 2012

Change the Weather History Date:

Friday, December 28, 2012

  Actual Average (KFFM) Record (KFFM)
Temperature  
Mean Temperature 8 °F -  
Max Temperature 14 °F 20 °F 41 °F (1999)
Min Temperature 3 °F 3 °F -21 °F (1993)
Degree Days  
Heating Degree Days 56    
Moisture  
Dew Point 7 °F    
Average Humidity 88    
Maximum Humidity 93    
Minimum Humidity 85    
Precipitation  
Precipitation 0.00 in - - ()
Sea Level Pressure  
Sea Level Pressure 30.09 in    
Wind  
Wind Speed 1 mph (West)    
Max Wind Speed 8 mph    
Max Gust Speed -    
Visibility 6 miles    
Events      
Averages and records for this station are not official NWS values.
T = Trace of Precipitation, MM = Missing Value Source: NWS Daily Summary

Daily Weather History Graph

Daily Weather History Graph

Search for Another Location

Airport or City:

Trip Planner

Search our weather history database for the weather conditions in past years. The results will help you decide how hot, cold, wet, or windy it might be!

Date:

Astronomy

Dec. 28, 2012 Rise Set
Actual Time 8:08 AM CST 4:47 PM CST
Civil Twilight 7:34 AM CST 5:22 PM CST
Nautical Twilight 6:56 AM CST 6:00 PM CST
Astronomical Twilight 6:19 AM CST 6:37 PM CST
Moon 5:29 PM CST (12/28) 8:00 AM CST (12/28)
Length of Visible Light 9h 48m
Length of Day
8h 38m
Full, 100% of the Moon is Illuminated
Dec 28
Full
Jan 4
Last Quarter
Jan 11
New
Jan 18
First Quarter
Jan 26
Full

Hourly Weather History & Observations

Time (CST) Temp. Windchill Dew Point Humidity Pressure Visibility Wind Dir Wind Speed Gust Speed Precip Events Conditions
12:15 AM 14.0 °F - 12.2 °F 93% 30.14 in 5.0 mi Calm Calm - N/A   Clear
12:35 AM 14.0 °F - 10.4 °F 86% 30.14 in 7.0 mi Calm Calm - N/A   Clear
12:55 AM 12.2 °F - 10.4 °F 92% 30.13 in 5.0 mi Calm Calm - N/A   Clear
1:15 AM 12.2 °F - 8.6 °F 85% 30.13 in 5.0 mi Calm Calm - N/A   Clear
1:35 AM 12.2 °F - 8.6 °F 85% 30.13 in 7.0 mi Calm Calm - N/A   Clear
1:55 AM 10.4 °F - 8.6 °F 92% 30.13 in 7.0 mi Calm Calm - N/A   Clear
2:15 AM 8.6 °F - 5.0 °F 85% 30.13 in 10.0 mi Calm Calm - N/A   Clear
2:35 AM 8.6 °F - 5.0 °F 85% 30.13 in 10.0 mi Calm Calm - N/A   Clear
2:55 AM 8.6 °F - 5.0 °F 85% 30.13 in 10.0 mi Calm Calm - N/A   Clear
3:15 AM 10.4 °F - 8.6 °F 92% 30.13 in 7.0 mi Calm Calm - N/A   Clear
3:35 AM 10.4 °F - 8.6 °F 92% 30.13 in 5.0 mi Calm Calm - N/A   Clear
3:55 AM 12.2 °F - 8.6 °F 85% 30.12 in 3.0 mi Calm Calm - N/A   Clear
4:15 AM 10.4 °F - 8.6 °F 92% 30.12 in 4.0 mi Calm Calm - N/A   Clear
4:35 AM 10.4 °F - 8.6 °F 92% 30.11 in 7.0 mi Calm Calm - N/A   Clear
4:55 AM 10.4 °F - 8.6 °F 92% 30.11 in 4.0 mi Calm Calm - N/A   Clear
5:15 AM 10.4 °F - 8.6 °F 92% 30.10 in 4.0 mi Calm Calm - N/A   Clear
5:35 AM 10.4 °F - 6.8 °F 85% 30.10 in 5.0 mi Calm Calm - N/A   Clear
5:55 AM 10.4 °F - 8.6 °F 92% 30.10 in 7.0 mi Calm Calm - N/A   Clear
6:15 AM 10.4 °F - 8.6 °F 92% 30.10 in 7.0 mi Calm Calm - N/A   Clear
6:35 AM 10.4 °F - 8.6 °F 92% 30.10 in 7.0 mi Calm Calm - N/A   Clear
6:55 AM 10.4 °F - 6.8 °F 85% 30.10 in 7.0 mi Calm Calm - N/A   Clear
7:15 AM 8.6 °F - 5.0 °F 85% 30.10 in 10.0 mi Calm Calm - N/A   Clear
7:35 AM 8.6 °F - 5.0 °F 85% 30.10 in 7.0 mi Calm Calm - N/A   Clear
7:55 AM 6.8 °F - 3.2 °F 85% 30.10 in 7.0 mi Calm Calm - N/A   Clear
8:15 AM 8.6 °F - 5.0 °F 85% 30.10 in 5.0 mi Calm Calm - N/A   Clear
8:35 AM 8.6 °F - 5.0 °F 85% 30.10 in 7.0 mi Calm Calm - N/A   Clear
8:55 AM 8.6 °F - 5.0 °F 85% 30.10 in 7.0 mi Calm Calm - N/A   Clear
9:15 AM 6.8 °F - 3.2 °F 85% 30.11 in 4.0 mi Calm Calm - N/A   Clear
9:55 AM 5.0 °F - 1.4 °F 85% 30.12 in 7.0 mi Calm Calm - N/A   Clear
10:15 AM 5.0 °F -4.1 °F 1.4 °F 85% 30.12 in 5.0 mi North 4.6 mph - N/A   Clear
10:35 AM 3.2 °F - 1.4 °F 92% 30.12 in 5.0 mi Calm Calm - N/A   Clear
10:55 AM 5.0 °F - 1.4 °F 85% 30.12 in 5.0 mi Calm Calm - N/A   Clear
11:15 AM 5.0 °F -2.1 °F 1.4 °F 85% 30.11 in 7.0 mi WNW 3.5 mph - N/A   Clear
11:35 AM 5.0 °F -2.1 °F 3.2 °F 92% 30.11 in 10.0 mi WNW 3.5 mph - N/A   Scattered Clouds
11:55 AM 8.6 °F - 5.0 °F 85% 30.10 in 5.0 mi Calm Calm - N/A   Clear
12:15 PM 8.6 °F - 5.0 °F 85% 30.10 in 5.0 mi Calm Calm - N/A   Clear
12:55 PM 8.6 °F 2.0 °F 5.0 °F 85% 30.08 in 7.0 mi WNW 3.5 mph - N/A   Clear
1:15 PM 8.6 °F - 5.0 °F 85% 30.08 in 7.0 mi Calm Calm - N/A   Clear
1:35 PM 8.6 °F - 5.0 °F 85% 30.07 in 7.0 mi Calm Calm - N/A   Clear
1:55 PM 8.6 °F 2.0 °F 5.0 °F 85% 30.07 in 7.0 mi West 3.5 mph - N/A   Scattered Clouds
2:15 PM 10.4 °F 4.0 °F 6.8 °F 85% 30.07 in 7.0 mi West 3.5 mph - N/A   Overcast
2:35 PM 10.4 °F - 8.6 °F 92% 30.07 in 7.0 mi Calm Calm - N/A   Overcast
2:55 PM 12.2 °F 6.1 °F 8.6 °F 85% 30.07 in 7.0 mi West 3.5 mph - N/A   Unknown
3:15 PM 12.2 °F 6.1 °F 10.4 °F 92% 30.07 in 7.0 mi West 3.5 mph - N/A   Overcast
3:35 PM 12.2 °F - 10.4 °F 92% 30.06 in 7.0 mi Calm Calm - N/A   Overcast
3:55 PM 12.2 °F 6.1 °F 10.4 °F 92% 30.06 in 5.0 mi West 3.5 mph - N/A   Overcast
4:15 PM 12.2 °F - 10.4 °F 92% 30.06 in 7.0 mi Calm Calm - N/A   Overcast
4:35 PM 12.2 °F - 10.4 °F 92% 30.07 in 7.0 mi Calm Calm - N/A   Overcast
4:55 PM 12.2 °F 6.1 °F 10.4 °F 92% 30.07 in 5.0 mi WSW 3.5 mph - N/A   Overcast
5:15 PM 12.2 °F 6.1 °F 8.6 °F 85% 30.07 in 7.0 mi West 3.5 mph - N/A   Overcast
5:35 PM 12.2 °F 6.1 °F 8.6 °F 85% 30.07 in 7.0 mi WNW 3.5 mph - N/A   Overcast
5:55 PM 10.4 °F 2.2 °F 6.8 °F 85% 30.07 in 7.0 mi West 4.6 mph - N/A   Overcast
6:15 PM 8.6 °F - 5.0 °F 85% 30.07 in 5.0 mi Calm Calm - N/A   Overcast
6:35 PM 8.6 °F - 5.0 °F 85% 30.07 in 5.0 mi Calm Calm - N/A   Scattered Clouds
6:55 PM 8.6 °F - 5.0 °F 85% 30.07 in 5.0 mi Calm Calm - N/A   Mostly Cloudy
7:15 PM 8.6 °F - 5.0 °F 85% 30.07 in 5.0 mi Calm Calm - N/A   Mostly Cloudy
7:35 PM 8.6 °F 2.0 °F 5.0 °F 85% 30.07 in 5.0 mi SSW 3.5 mph - N/A   Overcast
8:15 PM 10.4 °F 0.8 °F 8.6 °F 92% 30.07 in 3.0 mi WSW 5.8 mph - N/A   Overcast
8:35 PM 12.2 °F 6.1 °F 10.4 °F 92% 30.07 in 4.0 mi SW 3.5 mph - N/A   Overcast
8:55 PM 12.2 °F 1.7 °F 10.4 °F 92% 30.07 in 7.0 mi WSW 6.9 mph - N/A   Overcast
9:15 PM 12.2 °F 2.9 °F 10.4 °F 92% 30.07 in 7.0 mi West 5.8 mph - N/A   Overcast
9:35 PM 12.2 °F 2.9 °F 10.4 °F 92% 30.07 in 7.0 mi West 5.8 mph - N/A   Overcast
9:55 PM 14.0 °F 3.9 °F 10.4 °F 86% 30.07 in 7.0 mi West 6.9 mph - N/A   Overcast
10:15 PM 12.2 °F 0.7 °F 10.4 °F 92% 30.07 in 10.0 mi West 8.1 mph - N/A   Overcast
10:35 PM 10.4 °F -0.4 °F 8.6 °F 92% 30.06 in 10.0 mi WSW 6.9 mph - N/A   Mostly Cloudy
10:55 PM 10.4 °F 2.2 °F 6.8 °F 85% 30.07 in 7.0 mi WSW 4.6 mph - N/A   Scattered Clouds
11:15 PM 10.4 °F 4.0 °F 6.8 °F 85% 30.06 in 7.0 mi SW 3.5 mph - N/A   Scattered Clouds
11:35 PM 8.6 °F 2.0 °F 5.0 °F 85% 30.06 in 5.0 mi SSW 3.5 mph - N/A   Clear
11:55 PM 6.8 °F -2.0 °F 3.2 °F 85% 30.06 in 5.0 mi SW 4.6 mph - N/A   Clear